W5IM Weather Reports


time (UTC)temp
C
wind
direction
speed
KPH
gust
KPH
rain 1hr
cm
rain 24hr
cm
rain mn
cm
humidity
%
barometer
mb
20260504050510 19 161 9.7 14.5 0.00 0.00 0.00 78 1017.0
20260504050009 19 160 9.7 12.9 0.00 0.00 0.00 78 1017.0
20260504045508 19 163 9.7 11.3 0.00 0.00 0.00 78 1017.1
20260504045009 19 159 9.7 12.9 0.00 0.00 0.00 78 1017.1
20260504044508 19 159 9.7 11.3 0.00 0.00 0.00 78 1017.1
20260504044009 19 158 8.0 11.3 0.00 0.00 0.00 77 1017.2
20260504043509 19 161 8.0 11.3 0.00 0.00 0.00 76 1017.3
20260504043009 20 162 9.7 11.3 0.00 0.00 0.00 76 1017.5
20260504042508 20 164 8.0 11.3 0.00 0.00 0.00 76 1017.7
20260504041509 20 170 8.0 9.7 0.00 0.00 0.00 75 1017.8
20260504041009 20 168 8.0 9.7 0.00 0.00 0.00 74 1017.9
20260504040510 20 170 4.8 9.7 0.00 0.00 0.00 74 1017.9
20260504040009 20 168 8.0 11.3 0.00 0.00 0.00 73 1017.8
20260504035508 20 161 9.7 12.9 0.00 0.00 0.00 73 1017.8
20260504035009 20 164 8.0 11.3 0.00 0.00 0.00 73 1017.7
20260504034509 20 180 6.4 11.3 0.00 0.00 0.00 73 1017.7
20260504034009 20 169 8.0 14.5 0.00 0.00 0.00 73 1017.6
20260504033509 20 169 9.7 12.9 0.00 0.00 0.00 73 1017.5
20260504033010 20 165 9.7 14.5 0.00 0.00 0.00 73 1017.5
20260504032509 20 167 9.7 14.5 0.00 0.00 0.00 73 1017.5
20260504032009 20 164 8.0 12.9 0.00 0.00 0.00 73 1017.5
20260504031509 20 163 9.7 12.9 0.00 0.00 0.00 73 1017.4
20260504031009 20 158 11.3 12.9 0.00 0.00 0.00 73 1017.4
20260504030509 20 160 9.7 11.3 0.00 0.00 0.00 73 1017.5
20260504025008 20 157 9.7 12.9 0.00 0.00 0.00 72 1017.4
20260504024509 21 155 9.7 14.5 0.00 0.00 0.00 71 1017.4
20260504024009 21 153 11.3 14.5 0.00 0.00 0.00 71 1017.3
20260504023009 21 153 11.3 16.1 0.00 0.00 0.00 70 1017.4
20260504022509 21 153 12.9 16.1 0.00 0.00 0.00 70 1017.4
20260504022009 21 148 12.9 19.3 0.00 0.00 0.00 69 1017.3
20260504021509 21 150 14.5 19.3 0.00 0.00 0.00 69 1017.3
20260504021009 21 155 12.9 19.3 0.00 0.00 0.00 68 1017.2
20260504020509 21 152 12.9 19.3 0.00 0.00 0.00 69 1017.2
20260504020009 21 150 11.3 19.3 0.00 0.00 0.00 68 1017.3
20260504015508 21 150 12.9 22.5 0.00 0.00 0.00 68 1017.2
20260504015009 21 151 14.5 19.3 0.00 0.00 0.00 68 1017.1
20260504014009 21 147 11.3 16.1 0.00 0.00 0.00 67 1016.9
20260504013509 22 151 16.1 20.9 0.00 0.00 0.00 66 1016.9
20260504013008 22 152 14.5 20.9 0.00 0.00 0.00 65 1016.8
20260504012508 22 150 14.5 20.9 0.00 0.00 0.00 64 1016.7
20260504012009 22 150 14.5 22.5 0.00 0.00 0.00 63 1016.7
20260504011508 22 149 16.1 22.5 0.00 0.00 0.00 63 1016.7
20260504011009 22 145 19.3 24.1 0.00 0.00 0.00 62 1016.7
20260504010009 22 147 16.1 25.7 0.00 0.00 0.00 61 1016.7
20260504005509 23 143 19.3 25.7 0.00 0.00 0.00 60 1016.5
20260504005009 23 144 14.5 27.4 0.00 0.00 0.00 59 1016.5
20260504004510 23 148 19.3 25.7 0.00 0.00 0.00 58 1016.5
20260504003509 23 151 19.3 25.7 0.00 0.00 0.00 56 1016.4
20260504003008 23 151 17.7 25.7 0.00 0.00 0.00 56 1016.6
20260504001509 24 150 16.1 25.7 0.00 0.00 0.00 53 1016.9
20260504001009 24 141 17.7 25.7 0.00 0.00 0.00 52 1016.9
20260504000508 24 138 16.1 24.1 0.00 0.00 0.00 52 1016.9
20260504000009 24 148 16.1 25.7 0.00 0.00 0.00 50 1016.9
20260503235510 25 136 16.1 24.1 0.00 0.00 0.00 49 1016.7
20260503235009 25 147 19.3 24.1 0.00 0.00 0.00 48 1016.7
20260503234009 25 140 14.5 22.5 0.00 0.00 0.00 48 1016.8
20260503233509 25 151 16.1 22.5 0.00 0.00 0.00 47 1016.8
20260503233009 25 135 17.7 24.1 0.00 0.00 0.00 48 1016.7
20260503232509 25 147 17.7 24.1 0.00 0.00 0.00 48 1016.8
20260503232009 25 131 16.1 27.4 0.00 0.00 0.00 49 1016.6
20260503231511 25 140 19.3 29.0 0.00 0.00 0.00 48 1016.7
20260503231009 25 142 19.3 27.4 0.00 0.00 0.00 48 1016.8
20260503230509 25 132 14.5 20.9 0.00 0.00 0.00 48 1016.9
20260503230008 25 115 17.7 27.4 0.00 0.00 0.00 47 1017.0
20260503225509 25 146 17.7 25.7 0.00 0.00 0.00 46 1017.0
20260503224508 26 152 12.9 25.7 0.00 0.00 0.00 47 1017.1
20260503224009 26 149 16.1 25.7 0.00 0.00 0.00 46 1017.1
20260503223509 26 136 14.5 22.5 0.00 0.00 0.00 47 1017.1
20260503223009 26 148 19.3 25.7 0.00 0.00 0.00 46 1017.1
20260503222508 26 157 14.5 20.9 0.00 0.00 0.00 47 1017.3
20260503222009 26 145 19.3 25.7 0.00 0.00 0.00 45 1017.4
20260503221508 26 153 16.1 25.7 0.00 0.00 0.00 45 1017.4
20260503221008 26 137 19.3 27.4 0.00 0.00 0.00 46 1017.2
20260503220509 26 146 19.3 25.7 0.00 0.00 0.00 46 1017.2
20260503220009 26 140 19.3 29.0 0.00 0.00 0.00 45 1017.2
20260503215509 26 141 16.1 25.7 0.00 0.00 0.00 45 1017.3
20260503215009 26 143 14.5 22.5 0.00 0.00 0.00 44 1017.6
20260503214508 26 127 14.5 24.1 0.00 0.00 0.00 45 1017.6
20260503214008 26 135 16.1 20.9 0.00 0.00 0.00 45 1017.8
20260503213509 26 181 14.5 25.7 0.00 0.00 0.00 45 1017.8
20260503213009 26 167 11.3 27.4 0.00 0.00 0.00 47 1017.9
20260503212509 26 149 14.5 24.1 0.00 0.00 0.00 47 1018.0
20260503212008 26 151 17.7 27.4 0.00 0.00 0.00 48 1018.1
20260503211509 26 153 14.5 22.5 0.00 0.00 0.00 46 1018.4
20260503211008 27 141 12.9 22.5 0.00 0.00 0.00 45 1018.4
20260503210509 27 167 12.9 22.5 0.00 0.00 0.00 47 1018.5
20260503210009 26 134 16.1 32.2 0.00 0.00 0.00 44 1018.5
20260503205509 26 188 9.7 16.1 0.00 0.00 0.00 47 1018.6
20260503205009 26 164 11.3 27.4 0.00 0.00 0.00 47 1018.7
20260503204509 26 136 16.1 27.4 0.00 0.00 0.00 48 1018.7
20260503204009 26 137 16.1 29.0 0.00 0.00 0.00 48 1018.7
20260503203010 26 141 16.1 24.1 0.00 0.00 0.00 45 1018.9
20260503202509 26 192 4.8 16.1 0.00 0.00 0.00 43 1018.9
20260503202008 26 143 16.1 24.1 0.00 0.00 0.00 42 1019.0
20260503201509 26 150 12.9 22.5 0.00 0.00 0.00 45 1019.1
20260503201008 26 155 16.1 22.5 0.00 0.00 0.00 45 1019.2
20260503200509 26 154 16.1 25.7 0.00 0.00 0.00 43 1019.2
20260503195508 26 125 9.7 24.1 0.00 0.00 0.00 42 1019.3
20260503195008 26 147 14.5 22.5 0.00 0.00 0.00 43 1019.4
20260503194009 26 134 14.5 22.5 0.00 0.00 0.00 44 1019.6
20260503193509 26 136 4.8 16.1 0.00 0.00 0.00 44 1019.7
20260503193009 26 136 6.4 19.3 0.00 0.00 0.00 42 1019.8
20260503192508 26 127 14.5 20.9 0.00 0.00 0.00 44 1019.9
20260503192008 26 139 9.7 20.9 0.00 0.00 0.00 45 1020.0
20260503191509 26 121 9.7 19.3 0.00 0.00 0.00 46 1020.0
20260503191008 26 127 9.7 20.9 0.00 0.00 0.00 43 1020.0
20260503190508 26 87 8.0 14.5 0.00 0.00 0.00 42 1020.1
20260503190009 26 129 14.5 22.5 0.00 0.00 0.00 43 1020.3
20260503185508 26 144 9.7 20.9 0.00 0.00 0.00 43 1020.4
20260503184009 26 146 14.5 22.5 0.00 0.00 0.00 45 1020.5
20260503183508 26 154 14.5 20.9 0.00 0.00 0.00 42 1020.5
20260503183008 26 198 4.8 14.5 0.00 0.00 0.00 44 1020.7
20260503182508 26 183 11.3 19.3 0.00 0.00 0.00 43 1020.7
20260503182008 26 142 11.3 19.3 0.00 0.00 0.00 44 1020.8
20260503181508 26 149 11.3 20.9 0.00 0.00 0.00 42 1020.8
20260503181008 26 166 9.7 16.1 0.00 0.00 0.00 43 1020.9
20260503180508 26 170 11.3 24.1 0.00 0.00 0.00 46 1020.9
20260503180008 25 177 9.7 16.1 0.00 0.00 0.00 46 1021.1
20260503175009 25 43 9.7 25.7 0.00 0.00 0.00 45 1021.1
20260503174509 25 141 4.8 9.7 0.00 0.00 0.00 46 1021.2
20260503174009 26 104 8.0 20.9 0.00 0.00 0.00 45 1021.3
20260503172508 25 185 8.0 12.9 0.00 0.00 0.00 47 1021.4
20260503172008 25 121 3.2 12.9 0.00 0.00 0.00 44 1021.5
20260503171508 25 154 9.7 19.3 0.00 0.00 0.00 46 1021.5
20260503170508 25 158 8.0 19.3 0.00 0.00 0.00 47 1021.5
20260503151009 22 75 1.6 8.0 0.00 0.00 0.00 57 1022.2
20260503150508 22 63 4.8 11.3 0.00 0.00 0.00 60 1022.2
20260503131008 16 324 3.2 8.0 0.00 0.00 0.00 84 1021.9
20260503130510 16 312 4.8 8.0 0.00 0.00 0.00 84 1021.8
20260503110507 14 271 0.0 3.2 0.00 0.00 0.00 88 1020.4
20260503090508 16 109 0.0 0.0 0.00 0.03 0.00 81 1020.3
20260503081507 16 55 3.2 3.2 0.00 0.03 0.00 76 1020.5
20260503081008 16 58 1.6 3.2 0.00 0.03 0.00 76 1020.5
20260503080507 16 47 3.2 4.8 0.00 0.03 0.00 77 1020.5
20260503072507 17 52 1.6 3.2 0.00 0.03 0.00 75 1020.8
20260503072008 17 54 3.2 4.8 0.00 0.03 0.00 75 1020.8
20260503071508 17 58 3.2 4.8 0.00 0.03 0.00 75 1020.7
20260503071008 17 46 3.2 4.8 0.00 0.03 0.00 75 1020.9
20260503070507 17 63 3.2 4.8 0.00 0.03 0.00 75 1020.8